Weather Roundup
Issued by NWS

Home | Current Version | Previous Version | Graphics & Text | Print | Product List | Glossary Off
Versions: 1 2 3 4 5 6 7 8 9 10 11 12 13 14 15 16 17 18 19 20 21 22 23 24 25 26 27 28 29 30 31 32 33 34 35 36 37 38 39 40 41 42 43 44 45 46 47 48 49 50

755
NZUS93 KARX 200959
HRRWXR

CURRENT HOURLY OBSERVATIONS ACROSS
MUCH OF THE UPPER MISSISSIPPI VALLEY
NATIONAL WEATHER SERVICE LA CROSSE WI
400 AM CST MON FEB 20 2017


...SOUTHEAST MINNESOTA...


CITY           SKY/WX    TMP DP  RH WIND       PRES   REMARKS
ROCHESTER      CLOUDY    48  44  86 S16       29.89S
ROCHESTER/MAYO FAIR      52  45  76 SE9G16    29.90R
WINONA         MOCLDY    45  37  76 SW3       29.93S
AUSTIN         CLOUDY    48  43  81 SE8       29.88F
ALBERT LEA     CLOUDY    48  45  87 S12       29.86F
DODGE CENTER   NOT AVBL
PRESTON        CLOUDY    49  42  79 SE12      29.92R
OWATONNA       CLOUDY    52  45  76 SE17G26   29.85F
FARIBAULT      CLOUDY    54  46  76 S10       29.85F
$$

...ELSEWHERE IN MINNESOTA...


CITY           SKY/WX    TMP DP  RH WIND       PRES   REMARKS
MINNEAPOLIS    CLOUDY    51  42  71 SE16G23   29.84F
INTNL FALLS    CLOUDY    43  32  65 SE12      29.74F
DULUTH         CLOUDY    39  32  76 E16       29.87F WCI  30
RED WING       MOCLDY    54  41  62 SE8       29.89R
REDWOOD FALLS  MOCLDY    51  46  83 SE16      29.74S
MANKATO          N/A     50  45  83 SE15      29.81F
WORTHINGTON    CLOUDY    50  48  93 S15       29.74S
FAIRMONT       MOCLDY    48  45  89 SE12      29.80F
$$

...SOUTHWEST WISCONSIN...


CITY           SKY/WX    TMP DP  RH WIND       PRES   REMARKS
LA CROSSE      CLOUDY    52  42  69 SE7       29.94F
PRAIRIE DU CHI CLOUDY    52  42  69 SE6       29.98S
BOSCOBEL       MOCLDY    48  38  68 NE5       30.00F
LONE ROCK      NOT AVBL
PLATTEVILLE    MOCLDY    43  41  92 E12       30.01S
FORT MC COY    MOCLDY    49  41  73 E7        29.98F
MAUSTON-NEW LI CLOUDY    42  35  74 SE5       30.03R
VIROQUA        FAIR      47  39  73 SE12      29.98F
WIS DELLS      PTCLDY    43  35  74 E3        30.04S
$$

...ELSEWHERE IN WISCONSIN...


CITY           SKY/WX    TMP DP  RH WIND       PRES   REMARKS
MILWAUKEE      CLOUDY    39  34  82 CALM      30.12F
MADISON        CLOUDY    44  36  73 E3        30.05F
GREEN BAY      CLOUDY    34  31  88 NE6       30.12F WCI  29
EAU CLAIRE     NOT AVBL
BLACK RVR FLS  FAIR      38  33  81 E5        29.97F WCI  35
MEDFORD        PTCLDY    38  31  74 SE12      30.01F WCI  31
WAUSAU         PTCLDY    37  29  72 SE8       30.05F WCI  31
WIS RAPIDS     PTCLDY    41  32  70 SE7       30.05F
MARSHFIELD     CLOUDY    39  30  70 E8        30.01F WCI  33
RICE LAKE      CLOUDY    45  35  68 E10G16    29.92F
$$

...NORTHEAST IOWA...


CITY           SKY/WX    TMP DP  RH WIND       PRES   REMARKS
WATERLOO       CLOUDY    52  46  80 SE12      29.91F
DUBUQUE        PTCLDY    49  45  86 SE14      29.99F
DECORAH        CLOUDY    48  45  87 SE13      29.93R
MASON CITY     CLOUDY    47  43  86 SE12      29.86F
CHARLES CITY   MOCLDY    48  48 100 SE12      29.90F
OELWEIN        CLOUDY    48  48 100 SE14      29.94F
$$

...ELSEWHERE IN IOWA...


CITY           SKY/WX    TMP DP  RH WIND       PRES   REMARKS
DES MOINES     CLOUDY    58  49  72 SE8       29.86F
IOWA CITY      CLOUDY    50  46  86 SE6       29.98S
FORT DODGE     CLOUDY    52  45  76 SE8       29.84F
MARSHALLTOWN   MOCLDY    51  47  86 SE12      29.89F
CEDAR RAPIDS   PTCLDY    51  49  92 SE9       29.94F
$$

...NORTHERN ILLINOIS...


CITY           SKY/WX    TMP DP  RH WIND       PRES   REMARKS
CHICAGO-OHARE  CLOUDY    44  39  82 CALM      30.10S
CHICAGO-MIDWAY MOCLDY    47  41  80 SE6       30.11F
MOLINE         PTCLDY    49  45  86 E5        30.00F FOG
ROCKFORD       CLOUDY    47  42  83 CALM      30.08F
PEORIA         CLOUDY    49  48  97 SE6       30.06F FOG
$$

NOTE: "FAIR" INDICATES FEW OR NO CLOUDS BELOW 12,000 FEET WITH NO
SIGNIFICANT WEATHER AND/OR OBSTRUCTIONS TO VISIBILITY. WIND
SPEEDS ARE IN MILES-PER-HOUR.




USA.gov is the U.S. government's official web portal to all federal, state and local government web resources and services.